Location: Poughquag
(41.6090°N, 73.6820°W)
Time: 02:43:11
(UTC-04:00)

Vanguard 1 Rocket - Pass Details

Date: 01 June 2020
Orbit: 653 x 4224 km, 34.3° (Epoch: 06 July)

Event Time Altitude Azimuth Distance (km) Brightness Sun altitude
Rises 21:56:26 0° 205° (SSW) 8,428 12.1 -14.2°
Reaches altitude 10° 22:03:44 10° 196° (SSW) 7,405 11.7 -15.1°
Maximum altitude 22:23:06 30° 146° (SE) 5,108 10.6 -17.4°
Drops below altitude 10° 22:36:56 10° 93° (E) 5,363 11.0 -18.8°
Sets 22:40:59 0° 83° (E) 5,908 11.3 -19.2°
